Regional Weather Roundup
Issued by NWS

Home | Current Version | Previous Version | Text Only | Print | Product List | Glossary On
Versions: 1 2 3 4 5 6 7 8 9 10 11 12 13 14 15 16 17 18 19 20 21 22 23 24 25 26 27
000
ASUS44 KBMX 202210
RWRAL

ALABAMA REGIONAL WEATHER ROUNDUP
NATIONAL WEATHER SERVICE BIRMINGHAM AL
500 PM CDT WED SEP 20 2017

NOTE: "FAIR" INDICATES FEW OR NO CLOUDS BELOW 12,000 FEET
WITH NO SIGNIFICANT WEATHER AND/OR OBSTRUCTIONS TO VISIBILITY.

THE REMARK "TC" DENOTES TEMPERATURE IN DEGREES CELSIUS.

ALZ001>011-014-016>018-020-202300-
NORTH ALABAMA

CITY           SKY/WX    TMP DP  RH WIND       PRES   REMARKS
MUSCLE SHOALS  MOSUNNY   86  72  62 SW3       29.99S HX  92
HUNTSVILLE     CLOUDY    87  72  60 S5        29.99S HX  93
DECATUR        MOSUNNY   86  72  62 S3        29.99F HX  92
HALEYVILLE     FAIR      86  71  60 CALM      30.02F HX  91
GADSDEN        CLOUDY    86  72  62 VRB3      30.00S HX  92
$$

ALZ012-013-022-023-030>036-040>044-202300-
WEST CENTRAL ALABAMA

CITY           SKY/WX    TMP DP  RH WIND       PRES   REMARKS
TUSCALOOSA     PTSUNNY   87  76  69 NE3       29.96F HX  97
DEMOPOLIS        N/A     84  75  75 CALM      29.96F HX  92
$$

ALZ015-024>026-033>036-041>044-202300-
CENTRAL ALABAMA

CITY           SKY/WX    TMP DP  RH WIND       PRES   REMARKS
BIRMINGHAM     MOSUNNY   89  67  47 N6        30.01F HX  92
MONTGOMERY     PTSUNNY   89  70  53 N3        29.96F HX  94
SHELBY CO ARPT SUNNY     87  73  62 NE3       29.99F HX  94
MAXWELL AFB    PTSUNNY   87  71  58 CALM      29.96S HX  93
GREENVILLE     FAIR      86  72  62 NE3       29.97S HX  92
SELMA          FAIR      88  70  55 CALM      29.95F HX  92
PRATTVILLE     FAIR      86  72  61 CALM      29.96S HX  92
BESSEMER       FAIR      89  71  55 N6        30.00F HX  95
TALLADEGA      FAIR     N/A N/A N/A MISG      30.00F
PELL CITY      CLEAR     86  72  62 CALM      30.00F HX  92
MARION         FAIR      86  74  67 CALM      29.96F HX  94
SYLACAUGA      FAIR      86  70  57 CALM      30.00F HX  91
$$

ALZ019-021-028-029-037-038-045>048-202300-
EAST CENTRAL ALABAMA

CITY           SKY/WX    TMP DP  RH WIND       PRES   REMARKS
ANNISTON       PTSUNNY   86  67  52 NW3       30.00S
ALEXANDER CITY SUNNY     85  70  60 N8        30.00F HX  90
AUBURN         NOT AVBL
$$

ALZ051>064-202300-
SOUTHWEST ALABAMA

CITY           SKY/WX    TMP DP  RH WIND       PRES   REMARKS
MOBILE         CLOUDY    86  74  67 SW6       29.97S HX  94
BROOKLEY FIELD PTSUNNY   85  77  77 S6        29.97S HX  95
EVERGREEN      CLOUDY    84  73  69 S7        29.97S HX  90
$$

ALZ049-050-065>069-202300-
SOUTHEAST ALABAMA

CITY           SKY/WX    TMP DP  RH WIND       PRES   REMARKS
DOTHAN         MOSUNNY   88  73  61 N3        29.99F HX  95
OZARK          PTSUNNY   87  73  62 CALM      29.95F HX  94
TROY           MOSUNNY   87  72  60 N7        29.97F HX  93
EUFAULA        FAIR      90  72  55 NW5       29.95F HX  97
$$




USA.gov is the U.S. government's official web portal to all federal, state and local government web resources and services.